Wind_Speed
11 11 13 17 18 14 13 13 12 14 14 15 16 17 20 20 20 20 21 20 17 15 14 12 10 10 7 5 10 2 5 6 8 9 8 10 7 4 2 3 4 4 2 16 23 18 20
9 10 14 15 16 17 17 17 16 14 15 18 20 18 20 20 21 21 23 22 18 16 14 12 11 9 7 5 5 8 8 5 6 8 9 12 4 1 4 3 3 5 13 16 20 21 18
14 12 13 16 18 14 17 19 17 18 18 19 22 22 21 22 22 23 25 25 18 17 14 12 11 10 13 20 11 11 10 5 7 7 8 8 2 5 3 4 13 14 8 9 3 4 10
15 15 14 16 18 20 19 19 18 18 19 20 21 25 26 27 26 25 25 25 19 17 13 11 10 10 12 6 20 18 15 10 12 7 5 3 1 3 2 15 4 6 5 6 4 3 9
15 16 16 16 15 16 18 20 22 22 21 20 22 22 24 28 29 27 25 22 16 11 8 8 8 9 12 11 22 22 18 13 10 7 7 6 1 3 6 7 4 4 6 5 3 3 3
17 17 17 17 17 20 20 19 20 22 25 24 23 24 25 25 24 20 19 14 4 4 6 7 7 4 15 6 15 28 19 14 10 10 7 6 3 3 3 5 10 5 7 1 6 7 3
17 18 18 18 20 21 21 22 21 20 24 26 27 27 24 24 21 8 10 3 2 1 7 9 5 6 5 6 8 18 24 19 16 10 5 4 3 7 9 7 6 7 8 5 2 5 5
16 17 19 18 20 21 23 23 24 19 22 25 26 27 26 25 15 3 3 4 7 8 11 19 29 22 25 8 4 17 24 17 9 7 4 4 8 9 6 5 8 7 10 4 3 4 5
19 15 18 19 21 22 23 23 25 23 22 24 25 27 26 25 9 5 2 1 4 7 6 13 23 28 24 14 8 12 24 22 5 6 8 7 4 11 7 6 7 4 10 6 8 5 5
17 18 18 18 21 23 22 25 26 24 25 25 25 26 25 23 2 2 7 3 5 5 3 7 8 13 22 14 8 20 24 22 3 11 6 7 6 6 7 6 7 6 7 9 15 8 5
16 17 18 20 21 22 25 27 27 25 25 26 24 25 25 19 16 4 4 2 5 1 3 3 6 4 20 21 11 20 25 21 9 7 8 8 5 8 5 7 7 7 11 12 12 8 6
20 18 18 19 20 23 24 25 26 27 26 27 23 24 25 20 13 5 4 2 1 5 7 6 6 6 8 9 8 13 17 24 12 5 3 8 1 7 11 5 9 7 7 5 4 4 2
19 21 19 19 20 22 22 24 25 27 26 27 25 25 24 21 4 6 3 0 3 3 5 5 2 4 8 7 8 7 14 10 8 6 6 2 9 5 4 5 3 7 8 3 2 1 4
17 19 21 19 19 22 21 24 27 26 27 27 26 24 14 9 5 6 6 3 4 4 6 6 5 3 7 6 12 6 14 14 8 4 5 8 5 10 5 8 8 9 10 5 5 4 3
18 18 21 23 19 21 22 25 26 26 26 27 27 11 11 6 5 7 2 5 6 3 7 11 12 2 3 4 6 5 8 18 16 10 7 7 5 2 7 5 13 4 12 9 7 1 4
19 19 20 22 18 20 22 23 26 26 24 26 28 13 9 4 7 6 1 6 3 3 10 6 4 6 2 5 6 11 8 6 8 18 1 3 4 5 5 6 3 12 9 5 3 6 4
20 21 17 21 19 19 21 23 25 26 23 25 17 6 6 7 6 4 2 4 5 10 15 6 6 5 4 5 3 5 7 4 15 13 16 4 3 4 6 6 7 4 3 5 5 4 6
23 20 19 20 21 18 20 21 25 24 24 25 13 3 11 4 3 2 3 2 5 5 9 6 5 3 3 8 4 2 8 8 16 12 12 7 4 4 6 3 5 6 8 7 5 5 1
21 20 20 19 21 17 18 21 23 22 21 24 15 6 8 5 3 4 7 4 4 5 6 4 4 1 6 4 5 3 4 8 5 8 9 7 3 1 2 5 3 5 4 5 6 4 7
21 19 17 18 19 16 18 19 22 21 18 18 7 4 6 9 3 2 5 4 6 9 6 6 7 8 4 4 3 6 5 4 4 5 17 12 4 8 7 3 5 5 5 5 7 5 6
19 18 17 18 18 17 18 18 21 20 17 11 7 3 6 4 4 6 5 3 7 10 9 10 4 9 8 4 5 2 4 7 4 5 5 6 6 5 6 7 6 5 7 8 4 6 8
19 17 17 17 18 16 15 17 18 18 19 9 6 6 10 6 11 6 6 8 9 12 5 7 7 15 10 4 4 7 7 3 2 7 4 3 4 4 6 7 9 6 9 10 6 5 5
21 19 18 16 14 15 16 16 16 14 17 6 9 9 4 6 5 4 5 7 10 13 7 11 13 9 8 5 20 22 19 16 6 3 4 2 6 4 4 4 6 5 9 8 5 4 8
23 18 17 15 17 16 15 15 16 11 12 9 8 8 4 3 1 2 6 10 12 13 10 17 15 5 9 26 25 12 9 9 8 7 8 3 4 3 4 5 6 5 6 13 14 9 7
26 16 16 14 13 12 12 12 12 13 8 10 6 5 4 3 5 8 6 8 13 17 5 6 12 19 18 14 3 2 3 5 4 6 5 6 3 3 5 2 1 1 4 8 7 8 9
26 17 15 13 14 14 13 11 12 12 9 9 7 4 7 4 3 6 9 4 3 4 5 4 20 16 9 2 1 3 4 3 4 3 1 4 2 4 2 5 6 6 3 11 7 6 5
26 19 16 14 14 13 13 13 12 11 10 9 9 4 6 5 10 4 2 5 6 3 4 8 17 11 15 2 1 2 2 2 4 4 4 2 3 4 2 1 4 5 3 7 7 6 6
29 21 19 17 16 14 13 14 13 12 11 10 10 8 8 6 20 20 14 8 9 7 2 11 9 5 4 4 4 2 2 3 2 3 4 5 5 3 3 3 4 6 2 6 6 7 8
22 20 18 17 17 17 16 15 13 12 11 10 10 7 12 13 20 27 29 29 28 26 20 5 3 3 2 2 3 4 3 3 2 3 1 2 4 4 6 5 4 2 1 5 1 5 7
Wind_Direction
336 332 326 323 313 315 311 311 331 326 331 336 337 332 329 329 331 331 331 327 316 304 292 285 282 284 281 257 249 163 161 181 200 219 208 176 184 174 189 194 134 138 130 131 145 139 137
323 318 321 326 329 332 319 305 311 306 311 314 313 314 319 324 327 325 325 323 312 304 288 279 272 268 259 257 211 186 187 210 201 191 180 179 157 173 294 234 126 104 93 112 142 129 131
12 339 328 337 334 327 341 340 331 322 319 314 302 309 312 314 315 317 319 319 307 303 276 268 262 257 250 242 189 182 175 194 206 167 176 182 302 234 171 81 123 109 89 67 33 105 116
2 1 3 5 0 6 355 351 345 344 335 327 319 302 300 301 304 309 314 314 304 291 275 249 248 252 253 246 215 193 187 194 179 206 223 171 282 218 173 125 87 98 64 118 253 186 166
1 3 3 351 340 345 347 349 347 345 337 329 325 321 312 300 302 305 312 313 305 288 256 230 225 224 264 230 215 196 194 187 185 205 236 216 207 190 145 120 65 23 148 120 175 201 147
1 1 359 358 352 351 350 344 330 341 340 341 329 328 322 321 317 306 313 318 313 263 206 180 188 232 252 238 215 204 204 202 217 220 207 185 163 104 50 142 187 164 107 152 169 193 85
346 349 350 352 349 347 343 345 339 342 338 339 340 336 331 325 328 321 330 18 315 204 221 213 218 226 288 215 186 204 192 204 208 203 162 164 124 197 193 176 161 128 118 137 151 146 92
346 358 352 353 348 350 346 344 341 338 338 338 338 338 340 328 328 320 359 69 24 325 296 256 249 250 242 284 319 202 194 183 177 189 147 63 220 213 158 171 157 148 132 131 77 88 87
354 345 351 349 346 342 345 342 342 339 331 331 334 338 342 335 326 160 131 66 327 306 258 278 237 238 237 232 228 219 194 192 144 152 190 172 222 155 171 169 153 175 157 167 145 125 53
354 349 340 342 344 345 342 336 339 339 335 330 333 336 343 342 339 323 178 266 284 298 318 265 209 233 214 202 237 215 197 178 165 189 149 230 219 159 163 185 148 158 184 143 134 136 180
344 349 350 339 334 336 334 338 340 338 334 330 329 332 338 337 298 312 258 259 292 252 4 236 188 214 189 173 159 203 203 185 169 181 140 234 189 170 179 182 157 202 157 159 161 150 113
353 344 341 342 340 335 336 339 339 338 333 332 330 330 333 327 281 254 313 340 138 43 250 310 177 163 139 183 188 155 173 199 192 166 205 226 239 158 192 174 167 143 99 58 91 111 191
351 348 348 339 339 338 340 338 339 336 335 335 331 332 325 302 272 192 285 1 69 168 310 308 328 172 167 175 196 152 170 171 164 148 216 271 252 237 161 141 175 130 121 124 101 244 211
350 350 346 346 343 342 341 337 336 335 337 340 332 339 1 331 199 206 240 186 211 255 277 324 329 275 184 138 212 169 175 190 205 144 152 188 227 179 194 179 175 178 169 149 152 180 238
344 339 345 346 345 346 342 339 339 338 340 342 336 355 2 353 157 186 190 205 209 233 349 324 314 224 210 193 156 152 183 202 195 186 164 162 249 183 160 160 158 193 180 166 113 352 107
342 347 340 345 344 347 345 348 345 342 342 347 340 346 8 337 164 160 197 244 257 343 349 317 332 2 277 211 173 182 177 206 200 203 177 193 173 200 178 104 34 157 154 132 1 137 197
352 343 347 343 346 348 348 350 349 346 344 349 348 349 35 114 170 229 223 248 301 320 349 337 330 318 17 2 304 200 205 269 180 186 201 168 115 258 136 176 156 119 160 59 109 129 160
350 346 344 342 343 347 348 350 351 351 350 356 354 5 6 162 206 195 229 235 288 322 354 286 287 296 342 332 321 286 212 204 192 155 183 179 145 229 209 303 166 154 165 149 148 233 94
339 340 338 345 344 348 350 351 350 355 358 349 342 320 20 345 4 1 325 279 276 302 295 306 302 351 25 300 319 308 318 288 176 150 167 176 211 65 31 354 353 147 154 120 106 97 184
345 341 344 340 347 344 348 348 350 355 359 353 360 353 355 58 25 347 344 313 328 301 266 290 264 292 269 288 276 311 324 324 321 186 207 149 149 182 200 171 162 144 164 172 148 146 162
338 336 337 343 348 347 346 348 349 356 1 4 12 345 5 329 347 328 301 295 4 1 342 322 320 4 345 298 316 342 346 325 328 11 151 140 180 166 201 184 157 164 172 165 155 158 176
343 332 332 333 338 341 341 340 347 358 5 36 30 357 341 303 318 334 344 20 348 349 319 325 349 336 321 273 340 316 319 341 316 332 341 293 193 123 215 199 180 179 182 179 158 155 91
333 328 327 332 335 338 340 340 342 357 7 16 358 349 305 303 339 357 3 338 326 339 305 336 315 316 299 358 318 296 280 273 272 320 305 229 134 118 220 166 120 263 192 173 167 166 147
329 326 321 321 319 318 324 338 344 348 357 2 342 338 297 277 319 314 317 340 331 315 283 303 325 303 308 317 313 273 260 266 274 249 227 275 119 108 174 122 192 241 197 177 184 191 190
332 320 318 313 326 330 320 324 334 337 337 340 342 326 308 299 296 300 327 320 329 324 287 294 330 311 306 302 302 317 321 354 285 236 230 205 124 99 138 219 256 305 174 147 154 239 195
332 321 307 303 310 313 312 320 320 329 328 319 327 321 293 259 265 310 306 313 309 315 309 291 334 344 332 347 296 198 197 173 254 288 216 116 43 124 125 157 197 225 220 166 112 243 172
330 316 302 295 306 306 307 303 303 310 318 306 304 301 305 264 288 294 252 306 290 312 291 301 339 337 6 321 264 185 239 232 220 184 192 116 38 151 133 143 296 255 223 142 139 226 204
320 310 297 288 296 299 300 301 300 293 295 292 284 303 293 266 288 290 278 248 288 277 214 305 335 3 332 352 333 296 212 238 301 250 196 167 142 168 80 82 255 193 89 163 217 213 181
316 308 300 281 287 295 296 303 312 291 286 281 277 289 292 291 274 288 288 284 275 272 267 268 269 265 256 8 13 309 299 340 307 220 333 262 172 169 177 208 259 220 16 44 287 254 246
Height
1536 1534 1531 1528 1526 1524 1521 1518 1515 1513 1510 1508 1505 1502 1499 1495 1491 1488 1485 1483 1480 1479 1478 1477 1476 1475 1476 1475 1471 1469 1470 1471 1472 1474 1475 1477 1479 1480 1482 1483 1485 1487 1489 1492 1496 1499 1501
1535 1533 1530 1528 1525 1522 1518 1515 1513 1510 1508 1505 1502 1499 1496 1492 1489 1486 1482 1480 1477 1476 1475 1474 1474 1474 1475 1475 1468 1468 1469 1471 1471 1473 1474 1476 1478 1480 1481 1481 1484 1488 1491 1496 1502 1503 1505
1535 1533 1529 1526 1523 1520 1518 1514 1510 1507 1505 1502 1499 1496 1492 1489 1486 1482 1479 1475 1473 1472 1471 1472 1472 1472 1471 1463 1465 1466 1467 1469 1471 1472 1475 1476 1477 1479 1480 1481 1486 1489 1499 1502 1507 1505 1509
1536 1533 1530 1526 1523 1520 1516 1513 1509 1505 1502 1499 1496 1492 1489 1485 1482 1479 1475 1472 1470 1468 1468 1468 1469 1470 1464 1460 1461 1463 1465 1467 1469 1471 1474 1475 1477 1477 1479 1482 1486 1492 1499 1511 1509 1506 1508
1535 1532 1529 1526 1523 1520 1517 1513 1509 1504 1500 1496 1492 1488 1484 1480 1477 1474 1471 1467 1465 1464 1464 1466 1468 1468 1460 1455 1456 1461 1463 1466 1468 1470 1473 1475 1476 1476 1478 1484 1496 1496 1508 1510 1511 1506 1508
1536 1532 1529 1526 1523 1520 1515 1512 1508 1504 1499 1495 1490 1485 1480 1476 1473 1471 1468 1465 1464 1463 1463 1465 1466 1469 1455 1451 1453 1456 1462 1465 1467 1468 1472 1474 1474 1479 1482 1486 1496 1500 1507 1506 1509 1505 1508
1536 1532 1529 1526 1522 1519 1515 1511 1507 1503 1498 1493 1489 1483 1477 1473 1470 1468 1467 1464 1466 1466 1462 1456 1456 1450 1449 1448 1451 1454 1458 1463 1466 1467 1471 1471 1479 1483 1480 1479 1481 1488 1498 1504 1503 1502 1509
1535 1532 1528 1525 1521 1518 1514 1511 1506 1501 1497 1493 1487 1482 1476 1470 1468 1467 1467 1468 1471 1472 1462 1452 1450 1449 1448 1450 1451 1451 1455 1460 1462 1467 1468 1475 1478 1469 1472 1475 1478 1483 1496 1500 1502 1504 1510
1534 1530 1528 1524 1520 1517 1514 1509 1504 1499 1495 1491 1486 1481 1474 1468 1465 1467 1468 1469 1470 1468 1464 1445 1442 1441 1443 1449 1448 1446 1450 1454 1457 1464 1466 1472 1465 1463 1470 1475 1479 1483 1488 1498 1501 1509 1515
1533 1529 1526 1523 1520 1516 1513 1508 1503 1498 1493 1489 1484 1479 1474 1467 1469 1466 1467 1469 1469 1468 1468 1443 1434 1429 1436 1444 1442 1442 1446 1450 1454 1461 1465 1467 1460 1463 1467 1471 1473 1483 1479 1486 1497 1505 1521
1532 1528 1525 1522 1519 1515 1511 1507 1502 1497 1493 1487 1482 1478 1474 1471 1468 1468 1468 1467 1468 1468 1499 1427 1424 1423 1422 1431 1432 1435 1441 1445 1450 1454 1459 1460 1457 1462 1465 1464 1467 1475 1475 1483 1492 1504 1511
1531 1527 1524 1521 1518 1514 1510 1505 1501 1495 1490 1484 1479 1476 1472 1469 1468 1468 1466 1466 1468 1484 1488 1427 1418 1420 1425 1426 1428 1430 1436 1443 1445 1451 1451 1453 1450 1453 1455 1456 1460 1464 1477 1485 1493 1502 1521
1530 1526 1523 1519 1516 1512 1508 1504 1499 1494 1488 1481 1476 1472 1469 1466 1465 1466 1466 1467 1481 1492 1438 1425 1421 1418 1421 1423 1426 1426 1431 1438 1446 1458 1459 1452 1450 1447 1446 1456 1458 1462 1480 1509 1518 1517 1519
1530 1526 1522 1518 1515 1510 1506 1502 1497 1492 1485 1479 1473 1469 1464 1461 1463 1465 1467 1468 1479 1457 1444 1426 1422 1418 1422 1421 1423 1424 1429 1435 1436 1438 1451 1455 1459 1445 1441 1447 1457 1462 1470 1499 1507 1519 1515
1529 1525 1521 1517 1513 1509 1505 1500 1496 1490 1483 1477 1470 1466 1465 1463 1463 1465 1468 1465 1473 1454 1445 1438 1426 1420 1419 1416 1419 1423 1429 1428 1427 1431 1441 1451 1449 1433 1435 1438 1441 1461 1465 1467 1494 1499 1508
1528 1524 1520 1516 1512 1508 1504 1499 1494 1489 1482 1476 1469 1465 1465 1462 1465 1467 1469 1461 1456 1449 1448 1442 1435 1428 1425 1421 1421 1425 1428 1420 1423 1425 1428 1434 1447 1431 1432 1435 1440 1443 1455 1477 1491 1508 1499
1527 1523 1519 1515 1511 1507 1503 1498 1493 1488 1482 1476 1470 1466 1466 1465 1467 1468 1467 1463 1458 1452 1452 1447 1441 1437 1429 1432 1427 1425 1422 1415 1415 1422 1426 1430 1440 1438 1432 1437 1444 1451 1457 1468 1476 1487 1496
1526 1522 1519 1515 1511 1507 1503 1498 1494 1488 1483 1476 1472 1472 1468 1467 1468 1468 1468 1461 1458 1453 1452 1449 1443 1438 1437 1434 1429 1421 1419 1414 1409 1414 1425 1427 1440 1446 1434 1429 1429 1438 1448 1455 1481 1495 1500
1525 1521 1518 1515 1510 1507 1503 1499 1495 1489 1485 1480 1476 1473 1470 1468 1469 1470 1465 1461 1458 1455 1452 1449 1443 1439 1438 1438 1437 1424 1418 1408 1409 1412 1421 1424 1444 1453 1441 1440 1435 1437 1442 1448 1460 1474 1483
1523 1520 1516 1513 1510 1506 1503 1500 1496 1491 1487 1483 1480 1478 1473 1473 1476 1475 1471 1465 1459 1454 1451 1448 1444 1442 1438 1438 1432 1429 1423 1413 1410 1410 1414 1417 1433 1435 1447 1435 1438 1440 1440 1444 1448 1470 1475
1522 1518 1515 1512 1509 1506 1504 1500 1496 1492 1488 1486 1484 1484 1483 1481 1476 1475 1471 1468 1464 1460 1454 1448 1442 1445 1444 1440 1436 1430 1427 1421 1413 1413 1412 1416 1429 1429 1429 1426 1430 1433 1437 1442 1442 1449 1456
1520 1516 1513 1511 1509 1506 1504 1500 1497 1493 1490 1489 1488 1488 1485 1481 1479 1476 1472 1473 1470 1466 1462 1454 1453 1449 1444 1440 1439 1440 1431 1428 1427 1419 1416 1417 1426 1427 1440 1426 1426 1432 1435 1437 1438 1446 1448
1518 1514 1511 1509 1508 1506 1503 1500 1497 1495 1493 1491 1491 1490 1488 1483 1480 1479 1479 1477 1472 1470 1462 1461 1459 1454 1444 1440 1438 1434 1432 1429 1427 1427 1425 1419 1428 1435 1435 1427 1430 1440 1433 1434 1437 1438 1441
1515 1512 1509 1507 1506 1504 1502 1500 1497 1495 1494 1493 1492 1491 1488 1486 1483 1481 1478 1476 1472 1469 1466 1457 1455 1450 1443 1438 1432 1426 1427 1425 1423 1423 1423 1422 1421 1430 1448 1431 1449 1419 1416 1420 1425 1429 1433
1512 1509 1507 1505 1503 1501 1500 1498 1497 1495 1494 1493 1492 1491 1489 1487 1482 1478 1477 1476 1471 1466 1462 1458 1456 1452 1444 1439 1436 1432 1433 1427 1424 1419 1417 1418 1422 1435 1443 1447 1426 1417 1417 1422 1427 1431 1427
1509 1506 1503 1502 1500 1499 1497 1496 1495 1494 1493 1491 1490 1490 1488 1485 1480 1478 1476 1474 1472 1469 1462 1456 1451 1446 1442 1440 1438 1442 1435 1425 1423 1416 1413 1416 1417 1424 1445 1443 1444 1421 1412 1411 1417 1436 1421
1506 1503 1500 1498 1497 1496 1495 1494 1493 1492 1491 1490 1489 1488 1487 1484 1478 1477 1476 1475 1473 1469 1467 1460 1456 1448 1445 1442 1442 1437 1429 1423 1421 1415 1420 1424 1429 1432 1450 1443 1428 1414 1412 1412 1432 1436 1416
1502 1499 1497 1495 1494 1493 1492 1491 1490 1489 1488 1488 1487 1486 1486 1482 1476 1473 1472 1472 1470 1470 1469 1463 1459 1456 1452 1447 1441 1435 1432 1423 1419 1414 1415 1416 1426 1436 1438 1453 1436 1410 1412 1419 1417 1412 1413
1496 1494 1492 1491 1490 1489 1488 1488 1486 1486 1485 1485 1484 1484 1483 1481 1475 1471 1467 1465 1464 1464 1467 1464 1463 1462 1459 1458 1457 1450 1436 1431 1424 1423 1409 1418 1413 1420 1422 1423 1410 1409 1409 1411 1411 1411 1412